CAPE
1786 1980 1855 1771 1671 1543 1454 1944 1720 1553 1212 848 652 471 586 694 588 587 681 701 537 460 621 762 1421 1461 1416 1736 998 1164 1735 1854 1698 2106 2894 3398 3473 3496 3489 3611 3874 3700 4013 3745 3031 3346 3524 3270 2880 2928 3314 2880 2753 2027 1690 1772 1692 1582 1984 2732 2881 3821 4205 4388 3919 3870 4127 3600 3373 2880 2139 2119 1965 2312 2331 1370 1515 1698 1032 1249 1872 1576 842 867 1667
1520 2216 1917 1650 1113 1119 1190 1346 1764 1494 1265 1164 992 879 778 589 835 947 393 697 731 523 660 408 741 1070 1114 1538 1666 1139 1996 2201 1451 1423 2435 3128 2976 2110 2354 3048 4122 4238 4243 4422 4112 3277 3190 3269 3476 2548 3032 3113 2574 1954 1616 1185 1056 870 1231 1485 2077 2098 4134 4355 3513 3082 2919 3515 3601 3394 2882 2114 1927 1989 2788 2314 2042 2159 1511 1106 679 476 388 1681 1796
842 1962 1954 1726 1586 1256 1432 1499 1356 1461 1181 1000 1029 1002 981 941 766 752 562 511 538 593 621 429 1196 1319 1254 1351 2001 1664 2259 1961 1371 1478 1706 2593 2607 2222 1897 2348 2644 2817 3372 4001 3468 3096 2741 2884 2511 2417 1948 1999 2332 1814 1363 1370 1274 1967 2009 1971 1964 1762 2814 3693 3976 3254 3241 3707 3294 2588 3237 3293 2750 2797 2397 2263 2121 1980 1961 1663 1043 528 670 551 1257
1367 2285 2325 1649 1123 1390 1739 1924 1594 1304 1100 957 707 738 807 905 927 877 872 798 704 693 603 886 1388 2044 1682 1532 1978 1898 1700 1539 1369 1419 1915 2282 2464 3034 3058 2962 2395 2405 2502 2548 2348 2743 2817 3233 2773 2482 2421 2222 2794 2494 2228 1887 1968 2323 2098 2347 2903 2761 2888 3027 3800 3596 4088 3332 4478 3673 3437 3258 3309 2718 2258 2291 2109 2369 2368 2061 1787 1376 1646 1351 1198
2481 1485 1930 1476 1013 749 795 1008 1652 1822 1676 1396 884 577 484 545 842 1024 1048 972 828 901 1608 1670 1716 2301 1268 1516 1541 1705 1600 1627 1718 1343 1411 1686 2073 1975 2299 2857 2946 2791 2673 2770 2559 2900 3027 2928 2992 2842 2593 2762 2679 1866 1449 1951 1998 2075 2045 2911 2870 2632 2920 3535 3512 4287 4561 3953 4300 3736 3525 3062 3828 3141 2661 2338 2710 2487 2676 2971 2634 2537 2230 1424 1217
1679 2156 2264 1932 1466 1483 1302 935 937 937 993 1501 1004 768 689 280 233 528 906 1513 1476 936 1538 1595 1513 1802 1933 1706 1608 1825 1984 2016 2115 2001 1495 1403 1841 1786 1983 2509 2564 3149 3016 2575 2648 2682 2147 2584 2726 2519 2387 2455 2265 2096 2587 2701 1917 2004 1767 2188 3243 3027 2834 2807 4392 4110 3401 3582 3535 3364 3841 2988 3505 4366 3576 3320 2593 2297 2473 2783 2986 3036 1650 1287 1288
2703 3455 3032 2153 1736 1445 1481 1387 1165 1670 1313 1013 936 1224 763 545 556 359 456 943 907 837 783 1312 1988 1789 1949 1734 1408 1958 2304 1832 2107 2459 2132 1980 1961 1878 1334 2221 2689 2959 2775 2788 2706 2221 2393 2518 2914 2644 2691 2810 2465 2389 2660 2412 2192 2785 1984 2651 2635 3149 2222 1808 2749 3512 3360 2632 2644 2878 3164 3026 3078 3234 3914 3170 2960 2806 2665 2679 2302 2120 1456 1255 1255
2850 2958 3217 3171 2892 2684 2590 3086 2104 1952 2238 1816 1242 825 803 715 530 1500 910 533 353 655 858 865 648 2113 1784 2019 2230 2195 2335 2292 2628 2686 2348 1910 1842 1783 1844 1696 1526 2242 2517 2657 2093 2064 2090 2083 2078 2291 2181 2344 2776 2568 2010 2531 3375 2898 2616 3755 3077 3756 3382 2841 2885 3273 3376 2926 2918 2920 3553 3597 3928 4076 3860 3410 3228 3960 2340 1849 1717 1336 1039 1650 1406
2812 2897 2987 2912 2962 2769 2592 2572 2405 2202 2224 2030 1301 1149 1169 1129 1333 1205 1224 2354 790 458 799 762 987 832 2128 2572 2459 2207 1955 1862 1792 1786 2676 2390 2294 1749 1367 1599 1672 1766 1945 1635 1910 2007 1807 1841 1461 1632 2494 2908 2434 3240 2493 3118 2769 3350 4107 3559 2823 2795 2925 2059 2716 2926 3256 3178 3155 3304 2956 3293 3474 3751 3724 3709 3647 3285 2716 1488 1583 1610 1778 1158 1321
1654 1688 2246 3043 2867 2771 2547 2357 2312 2397 2424 2536 2374 1759 1288 1336 1313 1520 1708 2390 3164 2790 2486 2225 1422 1290 1812 1871 1941 1866 1732 1945 1724 1266 1342 2696 1988 1799 1501 2196 2277 2398 3244 2992 2498 2327 2216 1737 2163 2304 2446 2546 2645 2928 2629 2796 2621 2386 3003 2307 2387 2921 3412 3423 3652 3446 3059 2512 2542 2172 2127 2216 2380 3250 2476 3208 3720 2476 2031 1894 1402 1961 1348 1370 1919
1719 1658 1881 2166 2275 2378 2469 2517 2183 2058 1943 1990 2223 2009 2168 2280 2265 1646 1650 2275 2201 3529 2250 1844 1619 1425 1205 939 1326 2044 1384 1461 1156 1116 1193 1200 2426 2761 2241 2432 2515 2234 2259 1683 2762 2716 2696 1887 1586 1868 2350 2440 2203 3276 2495 2044 2036 2316 2584 2899 3228 3101 2833 3216 3132 3615 3186 2584 1875 2022 1947 1784 2178 3230 2749 3146 3321 2512 2335 2202 2272 2002 1734 1346 1259
1622 1612 1825 2110 2008 1936 2072 2128 1916 1792 1808 1876 1784 1525 1622 2004 1976 2071 1838 1948 2258 2142 1926 2115 2320 1837 1549 1528 1365 1246 1314 1536 525 921 1218 1268 1729 2751 1971 1798 2448 2002 1582 1600 1665 1967 2286 2544 1990 1769 1900 2244 2291 2736 2308 1882 1670 1839 2037 2285 2584 3034 3091 3296 3186 2897 3229 3200 2376 1845 1897 2046 2301 2027 1921 2988 3169 2824 2484 2138 2292 1994 2137 2051 1614
1600 1521 1148 1342 1246 1371 1578 1556 1511 1394 1135 1285 1402 1528 1641 1611 1760 1852 2046 2267 2066 1894 2352 2501 2208 2107 1849 2270 1732 1306 1374 818 751 815 899 1087 1115 1743 2259 2054 1790 2335 1955 1445 1537 2405 2686 3161 2875 2563 2550 2890 3216 2822 2898 2902 2848 2864 2714 2545 2565 2733 2871 3016 3025 3065 2607 3072 2316 1897 2093 2713 2205 1742 2373 2047 2266 2508 3176 2629 2461 2748 1804 1911 2190
972 1049 1037 1575 3658 1182 1365 1480 1322 1176 1175 1127 1239 1275 1435 1401 1551 1608 1512 1678 1819 1946 2037 2268 2545 3030 3320 2897 2597 1895 1805 825 871 749 959 939 977 1263 1950 2098 2105 2300 1632 1272 1108 1658 2282 2744 3373 3425 3046 3377 3684 3213 2990 3014 3023 3076 3098 3217 3174 3185 2851 2444 2385 2668 2437 2255 2406 2459 2432 2548 2417 2369 2740 2131 2500 3007 3347 3188 2968 2688 2467 1809 1850
692 805 907 980 1011 1025 1505 1523 1338 987 866 938 1029 1238 1243 1349 1503 1632 1642 1597 1772 1831 1684 1780 2125 2339 2352 2195 2256 2007 1645 1084 977 961 895 899 938 1088 1926 2111 2346 2399 2314 2387 2336 2452 2748 2960 2960 3118 3347 3207 3451 3493 3018 2790 2952 2970 2980 2734 2535 2285 2263 2264 2091 2072 2070 2054 2098 2171 2224 1967 2204 3021 3171 3068 2730 3249 3399 3248 2790 2153 2109 3569 2031
566 602 654 684 687 688 706 833 860 846 848 874 934 979 908 1007 1145 1337 1463 1475 1439 1456 1628 1743 2090 2519 2464 2039 1683 1545 1450 1183 968 965 989 1044 969 1087 1873 2329 2238 2369 2574 2953 2628 2936 3096 2579 2980 3395 2521 2085 3035 2797 2783 2728 2487 2167 2634 2568 2601 2470 2026 1938 1574 1470 2167 2402 1928 1474 1145 969 1233 1577 2468 2598 2828 3284 3186 2861 2270 2468 2769 3038 2252
503 477 478 471 472 456 448 544 644 699 739 784 852 956 1063 1075 1032 970 994 1118 1242 1240 1234 1330 1829 2014 2062 2084 1495 1318 1135 1097 1186 1210 1115 968 927 1357 1786 2053 2424 2229 2460 2357 2338 2134 2073 1958 1759 1947 1676 1752 2045 2009 1927 1855 1922 2059 2002 2027 1967 1909 1754 1539 1634 1290 1065 940 816 854 1060 1067 1213 1680 1876 2220 2252 2387 1809 1613 2531 2934 2551 2338 1506
516 452 344 330 287 283 378 431 504 608 637 689 681 612 524 583 659 712 718 768 758 658 856 813 1137 1645 1360 1491 1220 1421 1179 1144 1245 1254 1140 889 770 1204 1865 2430 1962 1747 1549 1630 1509 1465 1316 1434 1284 1185 1534 1398 1593 1904 2107 2025 1922 1724 1615 1467 1554 1593 1578 1342 1418 1397 1050 971 782 667 704 881 1021 1313 1805 1927 1694 1405 1518 1259 1854 1886 2115 1771 1216
52 188 232 194 183 167 136 132 107 128 148 191 202 184 237 263 387 458 375 432 382 226 333 526 720 786 1002 1227 1126 1152 1164 1089 1104 1138 1043 875 804 856 1636 1531 1346 1299 1444 1722 1680 1427 1454 1196 954 1128 1028 1252 1596 1804 1723 1530 1454 1484 1426 1254 1151 1092 1250 1408 1938 1700 1369 1003 882 846 902 826 862 1084 1265 1364 1385 1429 1265 952 679 1204 1452 1143 937
356 339 266 187 96 77 88 89 97 174 179 233 288 332 322 371 358 432 397 338 52 1 0 0 355 586 782 870 816 829 913 850 856 873 834 803 677 556 552 811 793 791 1212 1377 1518 1674 1182 806 946 924 1150 1017 952 890 861 820 753 638 609 711 748 776 827 760 1388 1295 1109 794 1081 1285 1183 999 985 967 871 888 1042 1352 1070 1055 1065 1120 897 1195 1119
247 238 237 181 100 75 45 21 55 100 151 184 195 189 215 302 305 323 414 437 38 53 140 291 426 706 699 535 446 522 637 637 513 592 744 664 588 520 469 438 418 478 663 779 1000 1029 865 782 435 493 638 726 724 676 610 549 485 424 396 487 594 594 643 668 732 718 948 938 775 816 760 719 748 718 944 1015 1012 1023 906 901 880 690 739 965 412
225 190 152 126 105 83 57 62 47 58 102 128 136 117 169 215 211 205 204 193 97 5 8 4 63 278 360 246 24 3 68 225 448 547 576 633 596 528 479 465 368 324 309 348 361 382 624 438 429 382 358 311 263 232 213 185 143 119 107 138 142 208 290 335 325 282 360 781 840 837 940 641 658 830 1018 887 790 635 690 722 689 604 330 319 348
169 152 142 118 97 89 95 81 77 96 117 107 78 84 109 137 188 216 240 242 176 66 5 5 3 1 24 1 1 1 1 0 36 189 284 190 112 55 105 25 62 1 88 135 165 189 181 139 134 140 157 163 147 140 104 92 51 0 0 25 40 0 0 0 1 2 10 193 636 788 729 664 650 565 623 669 561 527 580 654 589 416 261 109 105
0 0 0 0 86 87 85 70 64 74 101 129 119 95 86 80 64 53 19 5 102 7 7 5 4 3 2 1 1 0 0 0 23 11 0 10 75 87 100 113 123 144 156 170 181 194 190 174 140 122 122 140 142 147 139 132 114 94 68 9 0 0 0 0 1 3 14 76 263 528 676 843 683 482 595 547 564 32 316 488 377 300 282 176 81
0 0 0 0 0 0 0 12 31 39 8 4 10 21 24 20 31 45 33 17 12 6 6 5 2 1 0 0 0 0 0 0 0 0 0 1 34 53 72 99 112 120 143 155 166 178 193 200 197 163 120 77 97 89 94 65 57 59 56 49 2 1 0 0 2 4 43 130 343 539 855 521 507 402 285 279 204 140 175 277 307 370 266 73 102
31 1 0 0 0 0 0 0 0 0 0 0 0 0 0 0 0 0 0 13 12 11 7 3 2 1 0 0 0 0 0 1 1 0 0 0 0 0 7 51 66 75 79 88 104 115 137 145 136 117 90 66 54 41 24 26 16 21 6 8 9 39 44 26 32 8 43 167 106 208 228 286 333 300 304 285 251 191 17 29 61 14 25 0 4
15 0 0 0 0 0 0 0 0 0 0 0 0 0 0 0 0 0 0 0 0 0 0 0 0 0 0 1 2 0 1 0 0 1 1 0 1 0 0 38 57 75 78 90 103 103 77 68 76 72 65 45 38 53 44 48 57 39 29 8 10 25 17 7 3 11 61 81 122 183 225 224 208 243 166 144 144 100 78 0 0 5 11 29 14
1 0 0 0 0 0 0 0 0 0 0 0 0 0 0 0 0 0 0 0 0 0 0 0 0 0 0 0 0 0 0 0 0 0 0 6 12 15 11 12 0 1 19 27 40 49 42 31 22 26 109 286 315 243 80 73 63 48 42 9 12 14 7 2 1 2 2 50 148 195 249 289 227 112 85 94 73 49 4 1 2 4 4 7 27
0 0 1 4 4 0 0 0 0 0 0 0 0 0 0 0 0 0 0 0 0 0 0 0 0 0 0 0 0 0 0 0 0 0 0 0 0 1 1 11 29 28 28 22 30 52 38 14 10 143 209 292 241 106 30 19 32 18 8 7 8 9 12 10 8 5 19 53 55 74 20 26 147 132 111 65 31 21 1 1 0 0 0 0 0
0 0 0 0 0 0 0 0 0 0 0 0 0 0 0 0 0 0 0 0 0 0 0 0 0 0 0 0 0 0 0 0 0 0 0 0 0 0 0 0 0 0 15 29 20 4 6 1 60 56 49 33 12 9 4 1 0 2 4 0 0 0 0 0 4 9 17 16 20 80 70 71 78 63 43 35 10 2 3 1 4 25 0 0 0
6 0 0 0 0 10 0 0 0 0 23 0 0 0 0 0 0 0 0 0 0 0 0 0 0 0 0 0 0 0 0 0 0 0 0 0 0 0 0 0 0 0 0 0 0 2 6 6 2 0 0 0 1 0 6 7 3 3 2 6 6 1 0 0 43 0 0 0 0 0 0 0 3 0 10 0 0 0 8 8 2 0 1 2 8
2 0 0 0 31 49 0 11 29 14 18 8 65 2 0 0 0 0 0 0 0 0 0 0 0 0 0 0 0 0 0 0 0 0 0 0 0 0 0 0 0 0 0 0 3 0 0 0 1 1 0 0 0 1 2 1 7 9 3 2 2 7 6 5 2 0 0 0 0 0 0 0 1 4 2 0 0 8 0 0 0 0 3 2 0
0 0 0 0 12 11 0 22 8 9 5 24 203 98 37 0 0 0 0 0 0 0 0 0 0 0 0 0 0 0 0 0 0 0 0 0 0 0 0 0 0 0 0 0 1 0 0 0 1 2 1 1 0 2 3 3 6 10 6 1 0 0 0 0 0 2 1 0 0 0 0 2 4 10 17 31 17 2 1 8 0 0 0 0 0
43 0 0 0 2 7 16 0 0 3 76 42 124 3 11 18 11 4 0 0 0 0 0 0 0 0 0 0 0 0 0 0 0 0 0 0 0 0 0 0 0 0 0 42 9 5 5 1 0 2 2 2 12 16 25 15 14 16 15 12 8 4 2 8 6 5 6 7 4 2 4 7 2 9 10 9 11 9 5 1 0 0 0 4 0
88 53 6 30 85 0 0 2 0 43 23 38 8 5 16 37 73 11 63 9 3 0 0 0 0 0 0 0 0 0 0 0 0 0 0 0 0 0 94 120 262 74 66 6 7 4 7 10 6 1 1 4 5 10 21 24 16 23 21 20 15 14 8 9 8 10 8 9 8 6 4 9 10 6 7 7 1 3 5 4 0 7 0 10 3
0 83 247 236 15 26 12 0 0 0 0 0 0 0 0 1 4 74 65 20 49 85 5 0 0 0 0 0 0 0 0 0 0 0 0 0 0 0 14 4 1 2 8 8 12 11 8 10 7 5 1 0 0 0 1 6 14 17 20 15 16 21 28 21 13 8 6 5 7 4 3 0 0 1 6 1 0 1 0 0 0 2 3 6 0
0 0 0 48 11 0 0 26 53 100 0 0 0 11 1 3 15 9 44 304 358 52 164 46 5 0 0 0 0 0 0 0 0 0 0 0 0 24 0 0 7 5 0 2 11 8 6 5 10 4 1 0 0 0 0 0 2 7 8 10 7 13 22 24 22 20 16 14 14 8 4 4 1 0 1 5 4 1 0 0 1 1 0 0 0
0 1 7 1 0 0 0 0 0 0 12 8 400 437 135 59 44 18 28 35 25 41 57 70 83 54 48 327 202 11 11 0 2 0 0 0 0 0 6 2 2 0 2 8 14 20 13 8 5 3 4 1 0 0 0 2 2 2 7 8 15 26 24 24 21 27 31 21 9 4 6 6 7 6 5 0 0 1 1 0 0 0 0 0 0
2 114 0 0 0 0 0 0 0 0 4 3 0 0 0 0 1 8 23 31 43 55 44 62 64 107 179 235 196 176 58 106 84 43 26 0 0 0 1 1 0 0 0 2 4 5 4 2 8 10 5 3 4 2 0 0 0 0 0 4 5 13 19 21 25 26 23 4 6 12 14 1 0 0 0 0 0 0 0 0 0 0 0 0 0
0 1 34 0 0 0 0 0 0 0 0 0 0 2 3 0 0 3 11 9 46 44 22 57 79 44 38 27 6 6 33 57 33 33 13 1 0 0 0 0 1 4 8 3 2 4 2 0 5 7 2 0 0 3 3 1 0 0 0 0 0 0 0 0 0 0 0 0 0 0 0 0 0 0 0 0 0 0 0 0 0 0 0 0 0
0 0 56 26 2 0 0 0 0 0 0 0 2 3 1 2 0 2 0 6 12 14 30 72 63 7 0 0 0 1 0 33 62 56 29 26 7 0 0 0 0 0 0 0 0 3 2 0 0 0 0 0 0 0 0 0 1 2 0 0 0 0 0 0 0 0 0 0 0 0 0 0 0 0 0 0 0 0 0 0 0 0 0 0 0
0 0 0 0 0 0 0 0 0 15 22 8 10 3 3 7 12 16 19 29 14 14 11 34 31 16 0 0 0 0 0 2 32 50 34 29 25 7 18 49 2 0 0 0 0 0 1 2 0 0 0 0 0 0 1 1 0 0 0 0 0 0 0 0 0 0 0 0 0 0 0 0 0 0 0 0 0 0 0 0 0 0 0 0 0
0 0 0 0 0 0 0 0 3 0 1 6 11 13 36 32 23 28 32 27 17 19 17 36 75 13 0 0 0 0 0 0 14 30 39 34 46 59 65 30 4 10 7 2 1 1 0 0 0 0 0 0 0 0 0 0 0 0 0 0 0 0 0 0 0 0 0 0 0 0 0 0 0 0 0 0 0 0 0 0 0 0 0 1 1
0 0 0 0 0 0 1 0 0 4 4 5 3 1 0 8 12 27 18 16 15 7 7 3 27 66 1 0 0 0 0 4 43 9 11 7 35 8 0 0 0 0 0 0 0 0 0 0 0 1 9 0 0 0 0 0 0 0 0 0 0 0 0 0 0 0 0 0 0 0 0 0 0 0 0 0 0 0 0 0 0 0 0 0 1
0 0 0 0 0 4 1 10 6 8 7 5 11 16 11 12 15 20 19 21 19 22 10 8 13 20 39 27 5 0 13 52 62 55 22 25 36 3 0 0 0 1 0 0 0 0 0 0 0 0 0 0 0 0 0 0 0 0 0 0 0 0 0 0 0 0 0 0 0 0 0 0 0 0 0 0 0 1 1 2 2 0 0 2 1
0 0 0 0 0 0 0 0 3 0 0 0 2 0 4 5 5 2 4 7 13 15 16 12 18 11 164 84 48 66 60 91 41 0 4 0 0 1 0 0 0 0 0 0 0 0 0 0 0 0 0 0 0 0 0 0 0 0 0 0 0 0 0 0 0 0 0 0 0 0 0 0 0 0 0 0 0 0 0 0 2 2 0 0 0
0 0 0 0 0 0 0 0 0 0 0 0 0 0 1 10 17 18 18 12 8 4 14 17 7 17 79 116 55 177 57 99 0 8 2 0 0 0 0 0 0 0 0 0 0 0 0 0 0 0 0 0 0 0 0 0 0 0 0 0 0 0 0 0 0 0 0 0 0 0 0 0 0 1 9 6 1 0 0 1 3 3 2 2 1
0 0 0 0 0 0 1 3 2 5 2 4 3 8 6 2 2 4 7 4 4 3 2 25 64 94 68 60 74 12 4 30 14 0 1 0 0 0 0 0 0 0 0 0 0 0 0 0 0 0 0 0 0 0 0 0 1 0 0 0 0 0 0 0 0 0 0 0 0 0 0 0 1 1 0 0 0 0 0 0 2 2 5 1 5
0 0 0 0 0 0 0 0 1 0 1 0 0 0 4 3 2 2 7 9 5 15 13 49 28 156 222 183 107 70 77 17 39 0 0 0 9 0 0 0 0 0 0 0 0 0 4 0 0 0 0 0 0 0 0 0 0 0 0 0 0 0 0 0 0 0 0 0 0 0 0 1 2 4 2 3 0 0 1 2 3 2 2 4 3
0 0 0 0 0 0 2 0 3 4 6 5 4 4 4 4 4 9 4 6 11 22 8 28 56 44 50 34 48 67 40 0 0 0 1 0 1 0 0 0 0 0 0 0 0 0 0 0 0 0 0 0 0 0 0 0 0 0 0 0 0 0 0 0 0 0 0 0 0 0 0 1 6 4 2 0 2 2 2 2 0 1 1 1 2
0 0 0 0 0 0 1 1 0 0 1 4 4 6 8 11 8 5 2 2 5 6 6 42 38 40 44 35 25 180 261 0 17 0 0 0 0 0 0 2 1 0 0 0 0 0 0 0 0 0 0 0 0 0 0 0 0 0 0 0 0 0 0 0 0 0 0 0 0 0 0 3 2 2 2 2 0 0 2 0 0 1 1 3 3
Wind_Speed
14 13 13 11 11 12 11 10 8 7 6 7 7 9 9 8 9 9 9 9 10 10 10 7 8 10 9 8 6 7 8 8 8 8 8 7 5 4 6 6 6 5 4 4 4 6 7 6 7 7 7 6 5 4 3 3 4 5 7 8 7 9 9 10 8 5 7 8 6 5 6 8 10 12 10 9 9 11 14 14 15 17 18 20 23
15 15 13 12 10 11 10 12 10 9 8 8 8 8 9 11 10 11 10 11 10 10 12 11 9 9 9 10 10 8 11 11 9 9 10 11 9 6 5 6 8 7 6 6 6 5 6 6 6 6 7 6 5 3 3 3 4 4 6 6 8 8 9 10 8 8 6 8 6 7 7 10 6 8 10 10 10 9 5 7 11 12 13 17 22
17 17 15 15 14 12 11 11 11 10 9 9 9 9 10 10 12 10 9 10 11 10 10 11 13 12 9 11 12 11 12 14 12 11 11 12 12 9 7 9 10 8 8 8 7 7 6 7 5 5 4 4 5 5 4 4 4 6 6 7 6 7 9 9 9 8 7 7 7 6 10 9 9 9 9 11 11 10 9 9 9 10 11 11 18
24 20 21 21 20 16 15 14 11 10 8 10 10 10 10 11 12 11 10 9 10 12 10 10 12 13 12 11 11 12 13 14 14 13 12 12 13 12 11 9 10 11 10 8 8 9 8 8 6 5 5 5 7 6 6 5 6 6 6 8 9 8 8 8 8 8 9 8 9 10 11 10 10 9 9 11 10 11 11 11 10 12 11 12 14
20 19 20 22 26 29 30 22 14 12 10 11 10 10 11 11 12 12 11 11 9 10 13 12 12 13 11 12 11 11 13 14 14 13 13 12 12 11 11 12 10 11 10 11 10 10 10 8 7 8 7 9 8 11 7 7 9 11 12 10 12 10 8 11 12 13 10 10 11 11 10 9 12 10 12 12 11 12 13 13 13 16 17 19 20
27 20 21 25 25 26 24 21 22 24 24 23 22 23 18 12 13 14 13 13 14 11 15 14 11 11 12 12 12 12 13 14 15 14 12 12 12 11 12 11 11 12 12 10 11 11 11 12 12 12 10 10 11 12 10 14 16 11 10 11 12 9 13 15 12 15 15 12 12 11 12 11 12 12 14 15 13 13 13 15 16 19 19 20 20
30 30 28 25 24 22 21 19 16 16 19 21 22 22 21 23 15 14 17 17 13 12 10 14 18 14 15 12 12 13 13 12 14 15 14 13 12 12 12 12 13 13 12 12 11 11 11 12 13 13 12 12 13 13 15 16 13 13 13 15 16 17 17 15 14 14 16 14 13 14 13 13 13 11 15 16 16 17 16 16 17 19 20 21 18
35 34 31 28 25 24 25 25 23 21 21 23 24 26 25 23 25 25 20 15 13 12 13 12 15 21 19 15 15 16 14 13 15 14 14 13 13 12 13 13 13 13 14 13 13 13 13 11 12 15 14 14 15 17 17 17 15 15 17 19 19 18 16 15 16 17 18 18 16 15 16 14 14 15 17 18 17 18 19 20 18 17 14 15 18
41 38 34 31 29 28 28 28 27 23 22 25 26 26 26 28 27 28 26 23 18 17 20 18 16 15 21 22 19 17 14 12 13 15 15 13 14 14 13 13 14 14 14 15 16 15 15 15 19 22 18 16 15 17 19 20 20 19 19 20 20 18 18 17 17 19 21 20 18 17 15 15 16 18 20 18 17 18 21 20 19 19 17 14 14
42 40 36 33 31 30 29 29 28 27 27 28 29 29 28 28 28 24 21 19 23 25 26 25 24 23 22 21 19 17 21 22 23 23 18 20 23 17 17 16 18 23 21 20 21 22 21 19 21 23 21 17 17 20 21 23 21 19 20 19 18 18 19 19 20 21 24 21 20 19 17 17 19 24 22 21 23 23 21 21 18 20 20 18 17
38 38 36 33 32 31 32 32 31 29 30 31 32 31 30 30 29 26 23 19 25 26 26 24 25 24 22 22 21 24 21 24 24 23 19 24 23 21 21 22 23 23 23 24 18 23 22 23 21 20 19 18 19 23 22 23 23 22 19 18 18 18 19 19 19 23 24 22 23 21 21 20 20 23 23 22 26 25 22 21 19 19 20 22 22
29 34 37 36 36 33 32 32 32 32 32 34 35 33 33 32 32 28 25 22 24 22 21 23 26 25 24 22 25 23 22 25 26 21 23 28 28 25 27 21 25 27 26 25 25 23 23 20 20 23 23 25 26 25 25 23 22 21 21 20 19 17 19 19 20 21 22 22 23 23 23 22 24 25 22 22 23 24 23 22 22 21 21 22 24
28 31 36 41 41 37 35 34 34 35 36 35 36 35 34 34 34 31 27 28 30 29 26 24 24 25 25 26 29 27 25 26 22 20 20 24 28 27 25 30 27 26 26 27 24 23 23 23 24 25 27 28 27 27 27 26 23 23 23 23 22 21 21 21 22 22 21 21 21 20 23 25 25 25 26 26 26 24 24 24 24 24 24 23 24
29 28 31 38 39 37 36 36 37 38 38 38 37 36 36 37 37 33 31 32 30 27 29 26 24 27 28 30 32 30 31 31 28 27 27 28 30 28 27 26 27 28 28 27 26 25 25 25 25 27 28 29 30 29 28 28 28 27 28 29 29 27 26 24 23 24 26 24 20 20 23 26 24 26 27 28 27 25 26 26 27 26 27 25 27
34 31 30 33 42 47 44 43 42 41 40 42 41 39 37 36 37 38 34 33 30 29 28 25 24 26 29 31 32 33 38 36 32 32 31 33 34 30 30 29 29 29 29 30 29 27 28 28 28 29 31 32 31 30 32 31 30 28 29 29 29 31 31 30 32 32 31 29 27 25 27 26 25 25 28 28 26 24 26 28 30 30 28 29 29
35 33 30 29 38 50 52 50 48 45 44 44 45 44 44 41 37 35 36 35 35 30 26 27 29 30 32 34 34 42 36 38 37 38 37 36 34 32 31 31 30 30 31 32 31 32 31 31 31 35 33 30 40 41 37 34 31 29 29 29 30 32 32 31 32 30 29 31 31 30 29 29 28 25 23 25 27 26 28 29 31 30 29 31 29
28 31 30 24 27 42 49 47 46 46 45 44 44 44 44 42 41 39 39 38 36 32 28 29 31 31 33 36 41 42 38 38 39 40 39 38 35 36 34 34 35 34 34 35 38 38 36 35 36 38 36 33 39 41 41 38 36 33 31 31 32 31 32 33 35 33 31 30 28 28 27 25 25 29 31 28 26 26 28 27 28 33 34 32 34
19 24 26 23 24 33 42 44 42 41 40 41 42 42 44 44 45 43 43 41 39 35 31 27 27 29 32 38 45 42 45 43 44 45 45 42 38 39 39 39 38 40 40 41 40 39 40 42 40 38 35 38 43 44 42 40 38 36 34 32 32 33 34 34 34 36 37 35 32 30 27 26 27 30 28 22 21 30 33 27 27 32 35 37 37
nan 19 21 22 23 25 29 32 32 29 27 26 28 33 38 43 46 47 46 44 43 43 39 32 25 26 28 39 39 48 48 49 51 52 52 51 47 44 45 45 45 42 41 42 42 43 43 42 50 51 47 46 48 48 47 45 43 41 38 36 34 33 36 36 35 35 37 36 36 35 33 34 35 35 30 23 20 26 31 25 25 30 38 39 41
18 19 22 25 nan nan nan nan nan 23 21 19 19 20 23 30 36 42 46 46 nan nan nan nan 39 38 42 46 48 48 50 51 55 57 59 58 55 51 50 50 50 49 47 47 47 49 50 47 50 51 49 49 50 50 47 44 44 43 42 40 38 37 42 41 38 36 34 33 34 36 34 35 35 35 32 28 25 27 32 30 29 33 39 40 43
14 15 18 22 24 nan nan nan nan 29 27 24 21 19 19 20 23 28 33 38 nan nan 47 41 38 44 43 36 33 36 42 45 51 58 60 62 61 59 58 56 53 52 51 49 48 51 52 49 50 52 51 49 50 49 45 43 41 42 42 41 40 42 41 38 37 34 34 34 35 35 35 34 33 33 34 33 30 33 37 37 37 37 40 41 44
16 17 18 18 19 nan nan nan nan nan 30 27 24 21 20 21 21 21 21 26 nan nan nan nan nan 44 43 33 nan nan nan 36 37 45 48 52 55 59 56 54 51 52 55 55 54 56 55 53 51 50 51 51 50 50 48 45 41 40 41 41 40 39 39 38 39 39 37 35 36 36 36 36 34 36 36 36 36 33 39 43 43 41 42 41 41
19 20 20 19 nan nan nan nan nan nan 27 27 nan nan 21 21 22 22 22 22 24 nan nan nan nan nan nan nan nan nan nan nan nan 30 33 37 41 nan 46 nan nan nan nan 51 54 55 58 55 51 52 51 51 52 51 49 nan nan nan nan nan nan nan nan nan nan nan nan 36 35 34 34 35 35 35 39 44 44 39 38 42 43 45 46 46 44
nan nan nan nan nan nan nan nan nan nan 24 24 24 nan nan nan nan nan nan nan 24 nan nan nan nan nan nan nan nan nan nan nan nan nan nan nan nan nan 36 40 39 36 38 42 45 47 50 52 50 48 47 46 47 48 46 46 44 nan nan nan nan nan nan nan nan nan nan nan 36 36 36 37 40 45 46 47 46 nan 42 44 45 44 43 41 nan
nan nan nan nan nan nan nan nan nan nan nan nan nan nan nan nan nan nan nan nan nan nan nan nan nan nan nan nan nan nan nan nan nan nan nan nan nan nan nan nan 33 37 37 38 38 38 37 39 41 42 43 nan nan nan nan nan nan nan nan nan nan nan nan nan nan nan nan 38 38 37 39 45 50 50 50 50 50 49 48 47 47 43 40 nan 41
nan nan nan nan nan nan nan nan nan nan nan nan nan nan nan nan nan nan nan nan nan nan nan nan nan nan nan nan nan nan nan nan nan nan nan nan nan nan nan nan nan nan nan nan 31 29 29 33 35 37 nan nan nan nan nan nan nan nan nan nan nan nan nan nan nan nan nan 43 47 52 55 53 53 53 52 51 52 50 nan nan nan nan nan nan nan
nan nan nan nan nan nan nan nan nan nan nan nan nan nan nan nan nan nan nan nan nan nan nan nan nan nan nan nan nan nan nan nan nan nan nan nan nan nan nan nan nan nan nan nan 32 32 nan nan nan nan nan nan nan nan nan nan nan nan nan nan nan nan nan nan nan nan nan nan 54 55 56 56 54 53 52 50 51 49 nan nan nan nan nan nan nan
nan nan nan nan nan nan nan nan nan nan nan nan nan nan nan nan nan nan nan nan nan nan nan nan nan nan nan nan nan nan nan nan nan nan nan nan nan nan nan nan nan nan nan nan nan nan nan nan nan nan 32 34 35 39 nan nan nan nan nan nan nan nan nan nan nan nan nan nan 56 56 57 57 56 52 nan nan nan nan nan nan nan nan nan nan nan
nan nan nan nan nan nan nan nan nan nan nan nan nan nan nan nan nan nan nan nan nan nan nan nan nan nan nan nan nan nan nan nan nan nan nan nan nan nan nan nan nan nan nan nan nan nan nan nan nan 24 27 30 30 32 nan nan nan nan nan nan nan nan nan nan nan nan nan nan nan nan nan nan 56 54 53 nan nan nan nan nan nan nan nan nan nan
nan nan nan nan nan nan nan nan nan nan nan nan nan nan nan nan nan nan nan nan nan nan nan nan nan nan nan nan nan nan nan nan nan nan nan nan nan nan nan nan nan nan nan nan nan nan nan nan nan nan nan nan nan nan nan nan nan nan nan nan nan nan nan nan nan nan nan nan nan nan nan nan nan nan nan nan nan nan nan nan nan nan nan nan nan
nan nan nan nan nan nan nan nan nan nan nan nan nan nan nan nan nan nan nan nan nan nan nan nan nan nan nan nan nan nan nan nan nan nan nan nan nan nan nan nan nan nan nan nan nan nan nan nan nan nan nan nan nan nan nan nan nan nan nan nan nan nan nan nan nan nan nan nan nan nan nan nan nan nan nan nan nan nan nan nan nan nan nan nan nan
nan nan nan nan nan nan nan nan nan nan nan nan nan nan nan nan nan nan nan nan nan nan nan nan nan nan nan nan nan nan nan nan nan nan nan nan nan nan nan nan nan nan nan nan nan nan nan nan nan nan nan nan nan nan nan nan nan nan nan nan nan nan nan nan nan nan nan nan nan nan nan nan nan nan nan nan nan nan nan nan nan nan nan nan nan
nan nan nan nan nan nan nan nan nan nan nan nan 24 nan nan nan nan nan nan nan nan nan nan nan nan nan nan nan nan nan nan nan nan nan nan nan nan nan nan nan nan nan nan nan nan nan nan nan nan nan nan nan nan nan nan nan nan nan nan nan nan nan nan nan nan nan nan nan nan nan nan nan nan nan nan nan nan nan nan nan nan nan nan nan nan
nan nan nan nan nan nan nan nan nan nan nan nan 21 nan nan nan nan nan nan nan nan nan nan nan nan nan nan nan nan nan nan nan nan nan nan nan nan nan nan nan nan nan nan nan nan nan nan nan nan nan nan nan nan nan nan nan nan nan nan nan nan nan nan nan nan nan nan nan nan nan nan nan nan nan nan nan nan nan nan nan nan nan nan nan nan
nan nan nan nan nan nan nan nan nan nan nan nan nan nan nan nan nan nan nan nan nan nan nan nan nan nan nan nan nan nan nan nan nan nan nan nan nan nan nan 43 44 nan nan nan nan nan nan nan nan nan nan nan nan nan nan nan nan nan nan nan nan nan nan nan nan nan nan nan nan nan nan nan nan nan nan nan nan nan nan nan nan nan nan nan nan
nan nan 16 15 nan nan nan nan nan nan nan nan nan nan nan nan nan nan nan nan nan nan nan nan nan nan nan nan nan nan nan nan nan nan nan nan nan nan nan nan nan nan nan nan nan nan nan nan nan nan nan nan nan nan nan nan nan nan nan nan nan nan nan nan nan nan nan nan nan nan nan nan nan nan nan nan nan nan nan nan nan nan nan nan nan
nan nan nan nan nan nan nan nan nan 17 nan nan nan nan nan nan nan nan nan 28 28 nan 36 nan nan nan nan nan nan nan nan nan nan nan nan nan nan nan nan nan nan nan nan nan nan nan nan nan nan nan nan nan nan nan nan nan nan nan nan nan nan nan nan nan nan nan nan nan nan nan nan nan nan nan nan nan nan nan nan nan nan nan nan nan nan
nan nan nan nan nan nan nan nan nan nan nan nan 20 21 21 nan nan nan nan nan nan nan nan nan nan nan nan 38 41 nan nan nan nan nan nan nan nan nan nan nan nan nan nan nan nan nan nan nan nan nan nan nan nan nan nan nan nan nan nan nan nan nan nan nan nan nan nan nan nan nan nan nan nan nan nan nan nan nan nan nan nan nan nan nan nan
nan 20 nan nan nan nan nan nan nan nan nan nan nan nan nan nan nan nan nan nan nan nan nan nan nan 36 37 37 40 40 nan 41 nan nan nan nan nan nan nan nan nan nan nan nan nan nan nan nan nan nan nan nan nan nan nan nan nan nan nan nan nan nan nan nan nan nan nan nan nan nan nan nan nan nan nan nan nan nan nan nan nan nan nan nan nan
nan nan nan nan nan nan nan nan nan nan nan nan nan nan nan nan nan nan nan nan nan nan nan nan nan nan nan nan nan nan nan nan nan nan nan nan nan nan nan nan nan nan nan nan nan nan nan nan nan nan nan nan nan nan nan nan nan nan nan nan nan nan nan nan nan nan nan nan nan nan nan nan nan nan nan nan nan nan nan nan nan nan nan nan nan
nan nan nan nan nan nan nan nan nan nan nan nan nan nan nan nan nan nan nan nan nan nan nan nan nan nan nan nan nan nan nan nan nan nan nan nan nan nan nan nan nan nan nan nan nan nan nan nan nan nan nan nan nan nan nan nan nan nan nan nan nan nan nan nan nan nan nan nan nan nan nan nan nan nan nan nan nan nan nan nan nan nan nan nan nan
nan nan nan nan nan nan nan nan nan nan nan nan nan nan nan nan nan nan nan nan nan nan nan nan nan nan nan nan nan nan nan nan nan nan nan nan nan nan nan nan nan nan nan nan nan nan nan nan nan nan nan nan nan nan nan nan nan nan nan nan nan nan nan nan nan nan nan nan nan nan nan nan nan nan nan nan nan nan nan nan nan nan nan nan nan
nan nan nan nan nan nan nan nan nan nan nan nan nan nan nan nan nan nan nan nan nan nan nan nan nan nan nan nan nan nan nan nan nan nan nan nan nan nan nan nan nan nan nan nan nan nan nan nan nan nan nan nan nan nan nan nan nan nan nan nan nan nan nan nan nan nan nan nan nan nan nan nan nan nan nan nan nan nan nan nan nan nan nan nan nan
nan nan nan nan nan nan nan nan nan nan nan nan nan nan nan nan nan nan nan nan nan nan nan nan nan nan nan nan nan nan nan nan nan nan nan nan nan nan nan nan nan nan nan nan nan nan nan nan nan nan nan nan nan nan nan nan nan nan nan nan nan nan nan nan nan nan nan nan nan nan nan nan nan nan nan nan nan nan nan nan nan nan nan nan nan
nan nan nan nan nan nan nan nan nan nan nan nan nan nan nan nan nan nan nan nan nan nan nan nan nan nan nan nan nan nan nan nan nan nan nan nan nan nan nan nan nan nan nan nan nan nan nan nan nan nan nan nan nan nan nan nan nan nan nan nan nan nan nan nan nan nan nan nan nan nan nan nan nan nan nan nan nan nan nan nan nan nan nan nan nan
nan nan nan nan nan nan nan nan nan nan nan nan nan nan nan nan nan nan nan nan nan nan nan nan nan nan 55 nan nan nan nan nan nan nan nan nan nan nan nan nan nan nan nan nan nan nan nan nan nan nan nan nan nan nan nan nan nan nan nan nan nan nan nan nan nan nan nan nan nan nan nan nan nan nan nan nan nan nan nan nan nan nan nan nan nan
nan nan nan nan nan nan nan nan nan nan nan nan nan nan nan nan nan nan nan nan nan nan nan nan nan nan nan 54 nan 50 nan nan nan nan nan nan nan nan nan nan nan nan nan nan nan nan nan nan nan nan nan nan nan nan nan nan nan nan nan nan nan nan nan nan nan nan nan nan nan nan nan nan nan nan nan nan nan nan nan nan nan nan nan nan nan
nan nan nan nan nan nan nan nan nan nan nan nan nan nan nan nan nan nan nan nan nan nan nan nan nan nan nan nan nan nan nan nan nan nan nan nan nan nan nan nan nan nan nan nan nan nan nan nan nan nan nan nan nan nan nan nan nan nan nan nan nan nan nan nan nan nan nan nan nan nan nan nan nan nan nan nan nan nan nan nan nan nan nan nan nan
nan nan nan nan nan nan nan nan nan nan nan nan nan nan nan nan nan nan nan nan nan nan nan nan nan 50 50 50 50 nan nan nan nan nan nan nan nan nan nan nan nan nan nan nan nan nan nan nan nan nan nan nan nan nan nan nan nan nan nan nan nan nan nan nan nan nan nan nan nan nan nan nan nan nan nan nan nan nan nan nan nan nan nan nan nan
nan nan nan nan nan nan nan nan nan nan nan nan nan nan nan nan nan nan nan nan nan nan nan nan nan nan nan nan nan nan nan nan nan nan nan nan nan nan nan nan nan nan nan nan nan nan nan nan nan nan nan nan nan nan nan nan nan nan nan nan nan nan nan nan nan nan nan nan nan nan nan nan nan nan nan nan nan nan nan nan nan nan nan nan nan
nan nan nan nan nan nan nan nan nan nan nan nan nan nan nan nan nan nan nan nan nan nan nan nan nan nan nan nan nan 52 53 nan nan nan nan nan nan nan nan nan nan nan nan nan nan nan nan nan nan nan nan nan nan nan nan nan nan nan nan nan nan nan nan nan nan nan nan nan nan nan nan nan nan nan nan nan nan nan nan nan nan nan nan nan nan
Wind_Direction
266 262 261 259 264 275 285 282 286 273 275 280 279 283 285 280 291 293 279 282 284 292 290 273 269 295 307 303 314 292 292 289 290 286 291 290 280 239 211 238 268 258 250 221 206 215 227 234 256 263 275 284 287 290 298 317 324 334 327 312 323 304 300 299 310 317 308 303 307 324 323 315 321 331 343 328 332 331 352 356 353 351 355 351 345
249 250 248 251 258 260 272 275 276 271 277 279 283 281 286 281 276 280 295 284 280 291 293 301 289 275 291 296 292 286 281 286 293 284 288 290 296 296 289 258 264 271 258 257 259 260 268 273 267 279 288 306 321 340 314 330 335 315 297 298 285 282 295 295 299 302 304 298 315 325 311 278 290 307 307 302 311 321 331 351 352 357 353 322 333
223 243 245 249 250 244 241 254 261 269 277 275 279 282 281 283 281 285 289 292 290 286 286 297 285 285 279 272 277 280 271 285 282 272 272 281 284 286 284 283 288 287 288 289 290 283 286 275 279 290 304 293 307 321 327 316 293 273 255 253 251 258 286 289 291 295 291 292 295 286 280 277 295 292 286 296 312 317 325 336 339 330 324 324 324
197 221 231 232 238 243 247 235 235 252 265 268 276 276 269 272 278 286 290 292 296 289 287 282 282 280 285 279 269 264 266 264 271 277 270 268 277 282 279 267 270 285 287 283 282 277 272 266 266 257 254 259 262 270 267 251 255 261 267 266 264 253 258 273 279 273 269 269 278 272 271 278 290 289 292 296 305 311 322 324 321 314 304 300 288
233 237 249 248 242 232 213 208 222 228 235 247 245 250 265 269 268 275 280 279 274 278 280 274 268 278 289 285 279 271 268 267 264 269 271 274 277 282 283 283 279 272 275 274 277 272 266 271 270 266 261 261 250 239 226 250 248 232 235 235 258 259 254 262 257 260 259 255 254 267 271 283 290 297 296 297 305 314 316 315 307 304 298 293 302
250 257 254 256 248 240 239 220 210 224 215 206 214 219 217 244 270 270 271 263 259 259 276 277 274 272 273 271 276 273 266 264 264 266 268 268 277 284 279 279 281 279 275 276 272 267 269 264 259 259 261 260 259 274 265 244 242 255 265 254 254 270 264 253 260 269 269 268 269 268 280 278 286 299 304 303 302 300 306 307 307 300 296 295 299
246 244 248 248 244 242 243 258 263 250 247 247 242 234 220 195 200 259 266 269 278 285 284 277 273 263 260 262 264 265 270 272 265 264 268 263 260 266 274 278 277 276 283 284 280 282 280 280 275 271 264 267 271 265 260 256 274 278 273 273 263 262 267 275 273 278 280 276 273 280 280 283 289 289 294 294 299 306 306 305 307 306 306 301 299
245 244 242 242 239 241 236 240 257 254 244 247 244 238 235 233 220 213 229 251 268 264 263 266 268 269 259 252 253 251 251 259 260 259 261 264 260 259 262 261 270 277 279 279 275 271 271 268 278 275 272 269 267 267 264 279 273 266 266 266 266 267 268 276 280 276 277 275 274 270 278 279 286 293 290 290 292 295 296 299 303 304 300 300 305
238 239 239 236 238 239 238 239 247 249 248 253 251 245 246 249 236 219 206 222 236 241 256 244 244 257 269 266 259 252 253 256 259 251 258 264 256 248 252 267 269 268 267 269 275 276 274 274 267 263 261 264 268 274 272 260 262 268 274 272 273 277 276 280 283 282 271 272 277 283 285 288 290 290 287 288 294 294 293 294 300 304 301 294 305
237 237 235 236 235 239 239 238 239 241 238 240 238 238 247 249 245 237 226 208 235 248 246 247 244 249 255 257 258 255 247 241 242 227 227 253 257 254 243 236 244 244 247 256 259 259 260 255 264 276 268 265 264 273 279 285 285 281 278 276 278 282 285 282 286 285 286 288 288 285 283 282 286 290 293 292 288 287 290 293 297 297 297 298 298
243 244 241 236 235 234 235 234 232 232 236 236 234 238 242 242 242 247 253 238 224 229 248 249 249 243 240 244 253 254 257 252 238 231 234 258 262 264 260 246 252 255 249 247 249 255 257 263 273 275 277 272 273 281 276 275 279 276 276 275 276 277 280 285 285 283 285 290 291 291 293 289 284 285 290 291 291 288 287 289 295 293 294 290 291
241 247 246 239 236 234 233 233 233 230 229 231 234 236 241 239 236 237 243 247 253 246 235 247 251 249 243 238 244 252 249 257 265 262 252 252 255 253 259 264 261 261 257 252 249 250 253 262 269 271 276 273 274 276 278 280 282 285 286 286 287 287 280 274 270 274 282 286 289 292 289 288 285 279 281 283 288 289 294 296 298 300 300 299 298
248 250 245 239 233 233 233 235 234 233 232 232 233 235 237 240 243 240 235 236 236 237 240 244 247 249 250 245 249 254 251 257 269 265 261 263 266 263 258 262 256 260 263 265 260 258 261 258 262 267 269 275 273 273 274 275 278 281 285 287 286 288 286 285 287 282 273 276 281 282 286 283 285 290 291 289 287 290 292 294 295 298 301 301 303
254 254 250 241 232 231 234 235 236 236 234 235 235 236 236 238 240 242 237 234 236 241 241 236 239 247 249 249 248 249 253 256 257 258 259 261 260 259 261 258 264 266 266 268 268 266 265 264 264 268 268 269 270 273 274 275 274 274 278 280 280 279 281 285 283 285 284 278 272 270 274 278 284 284 286 288 291 293 291 292 293 296 300 303 299
260 260 260 247 233 227 229 234 237 239 238 238 238 237 239 242 243 244 245 243 244 245 246 249 253 252 252 254 256 254 250 244 251 254 253 255 258 254 256 259 260 261 260 264 268 269 268 268 268 265 266 265 261 263 269 269 269 269 270 271 275 277 278 277 275 277 279 281 280 280 279 278 279 280 287 292 292 291 291 291 292 292 292 289 288
260 261 265 259 238 228 229 234 238 242 243 243 243 242 241 242 243 245 245 245 247 249 248 251 253 257 261 261 260 256 254 247 251 253 255 256 257 259 258 259 261 263 265 262 262 262 262 262 264 261 256 260 262 259 258 260 259 259 262 266 271 278 279 277 280 280 279 280 282 286 281 279 275 275 275 286 293 290 286 286 285 288 292 293 294
262 262 265 269 250 233 232 237 242 245 247 248 247 244 241 240 241 244 247 247 246 243 243 245 253 259 265 269 266 266 265 252 250 252 253 253 259 261 257 255 258 264 268 264 257 253 252 252 253 259 259 260 261 260 257 258 261 259 259 259 263 268 270 268 278 282 282 279 279 277 281 284 283 278 268 265 276 276 276 281 288 291 294 295 293
260 262 262 264 253 238 234 237 240 243 244 247 249 248 246 244 245 247 251 250 245 244 246 245 249 255 257 266 267 272 266 257 252 251 250 248 254 260 260 260 261 260 260 258 257 257 255 250 251 257 258 257 256 259 257 259 262 260 260 260 260 263 266 267 271 277 278 278 280 283 283 280 279 276 276 286 293 286 285 296 296 293 295 294 293
nan 247 251 250 253 248 241 238 238 235 235 238 244 248 249 249 250 252 255 252 245 241 241 243 249 259 266 270 280 272 266 259 255 254 252 251 253 259 259 263 263 262 262 261 262 263 262 255 252 255 259 259 256 256 256 258 258 257 258 259 260 261 265 266 268 268 270 274 276 279 280 280 281 284 286 293 298 295 292 293 283 286 291 292 292
234 242 247 249 nan nan nan nan nan 240 244 249 249 250 250 251 250 249 249 249 nan nan nan nan 239 252 256 258 256 256 257 256 253 251 252 252 252 258 258 260 260 258 258 259 258 262 265 264 260 258 258 256 255 256 259 260 261 258 257 258 257 259 259 259 262 268 269 267 267 274 279 278 279 284 288 290 291 289 290 295 295 292 295 295 296
247 246 250 252 256 nan nan nan nan 250 256 263 263 262 261 260 256 250 246 249 nan nan 250 248 248 247 251 261 266 257 255 256 251 247 249 250 251 257 262 260 259 259 258 258 259 261 262 263 264 258 256 256 256 255 255 259 263 261 260 262 261 254 253 258 260 258 265 268 268 270 273 274 275 281 284 283 279 278 278 278 277 280 287 293 297
258 253 251 251 254 nan nan nan nan nan 264 269 272 271 272 271 270 265 259 253 nan nan nan nan nan 248 247 255 nan nan nan 246 249 246 248 249 249 253 260 260 257 259 257 257 256 256 257 260 260 254 250 254 255 254 252 256 260 264 263 262 257 255 258 260 260 264 269 271 274 275 277 277 277 281 282 281 279 276 281 278 276 278 282 283 290
254 256 256 254 nan nan nan nan nan nan 270 271 nan nan 271 272 273 272 270 267 260 nan nan nan nan nan nan nan nan nan nan nan nan 244 254 259 257 nan 256 nan nan nan nan 253 254 256 255 253 251 247 246 251 252 249 250 nan nan nan nan nan nan nan nan nan nan nan nan 269 272 273 275 275 275 277 278 273 271 272 272 272 276 281 281 278 277
nan nan nan nan nan nan nan nan nan nan 264 267 270 nan nan nan nan nan nan nan 273 nan nan nan nan nan nan nan nan nan nan nan nan nan nan nan nan nan 261 250 244 245 251 255 256 256 255 252 249 245 246 248 250 250 251 257 263 nan nan nan nan nan nan nan nan nan nan nan 269 270 270 273 274 268 267 268 269 nan 268 268 272 274 275 277 nan
nan nan nan nan nan nan nan nan nan nan nan nan nan nan nan nan nan nan nan nan nan nan nan nan nan nan nan nan nan nan nan nan nan nan nan nan nan nan nan nan 250 249 255 261 261 261 257 253 251 251 254 nan nan nan nan nan nan nan nan nan nan nan nan nan nan nan nan 265 268 270 269 268 271 273 272 272 271 271 271 273 274 273 272 nan 273
nan nan nan nan nan nan nan nan nan nan nan nan nan nan nan nan nan nan nan nan nan nan nan nan nan nan nan nan nan nan nan nan nan nan nan nan nan nan nan nan nan nan nan nan 261 258 256 252 252 257 nan nan nan nan nan nan nan nan nan nan nan nan nan nan nan nan nan 259 261 265 269 271 272 273 274 274 272 272 nan nan nan nan nan nan nan
nan nan nan nan nan nan nan nan nan nan nan nan nan nan nan nan nan nan nan nan nan nan nan nan nan nan nan nan nan nan nan nan nan nan nan nan nan nan nan nan nan nan nan nan 256 257 nan nan nan nan nan nan nan nan nan nan nan nan nan nan nan nan nan nan nan nan nan nan 266 267 268 271 274 274 275 274 271 268 nan nan nan nan nan nan nan
nan nan nan nan nan nan nan nan nan nan nan nan nan nan nan nan nan nan nan nan nan nan nan nan nan nan nan nan nan nan nan nan nan nan nan nan nan nan nan nan nan nan nan nan nan nan nan nan nan nan 266 269 269 270 nan nan nan nan nan nan nan nan nan nan nan nan nan nan 266 268 269 271 272 273 nan nan nan nan nan nan nan nan nan nan nan
nan nan nan nan nan nan nan nan nan nan nan nan nan nan nan nan nan nan nan nan nan nan nan nan nan nan nan nan nan nan nan nan nan nan nan nan nan nan nan nan nan nan nan nan nan nan nan nan nan 265 271 274 274 272 nan nan nan nan nan nan nan nan nan nan nan nan nan nan nan nan nan nan 270 270 270 nan nan nan nan nan nan nan nan nan nan
nan nan nan nan nan nan nan nan nan nan nan nan nan nan nan nan nan nan nan nan nan nan nan nan nan nan nan nan nan nan nan nan nan nan nan nan nan nan nan nan nan nan nan nan nan nan nan nan nan nan nan nan nan nan nan nan nan nan nan nan nan nan nan nan nan nan nan nan nan nan nan nan nan nan nan nan nan nan nan nan nan nan nan nan nan
nan nan nan nan nan nan nan nan nan nan nan nan nan nan nan nan nan nan nan nan nan nan nan nan nan nan nan nan nan nan nan nan nan nan nan nan nan nan nan nan nan nan nan nan nan nan nan nan nan nan nan nan nan nan nan nan nan nan nan nan nan nan nan nan nan nan nan nan nan nan nan nan nan nan nan nan nan nan nan nan nan nan nan nan nan
nan nan nan nan nan nan nan nan nan nan nan nan nan nan nan nan nan nan nan nan nan nan nan nan nan nan nan nan nan nan nan nan nan nan nan nan nan nan nan nan nan nan nan nan nan nan nan nan nan nan nan nan nan nan nan nan nan nan nan nan nan nan nan nan nan nan nan nan nan nan nan nan nan nan nan nan nan nan nan nan nan nan nan nan nan
nan nan nan nan nan nan nan nan nan nan nan nan 272 nan nan nan nan nan nan nan nan nan nan nan nan nan nan nan nan nan nan nan nan nan nan nan nan nan nan nan nan nan nan nan nan nan nan nan nan nan nan nan nan nan nan nan nan nan nan nan nan nan nan nan nan nan nan nan nan nan nan nan nan nan nan nan nan nan nan nan nan nan nan nan nan
nan nan nan nan nan nan nan nan nan nan nan nan 267 nan nan nan nan nan nan nan nan nan nan nan nan nan nan nan nan nan nan nan nan nan nan nan nan nan nan nan nan nan nan nan nan nan nan nan nan nan nan nan nan nan nan nan nan nan nan nan nan nan nan nan nan nan nan nan nan nan nan nan nan nan nan nan nan nan nan nan nan nan nan nan nan
nan nan nan nan nan nan nan nan nan nan nan nan nan nan nan nan nan nan nan nan nan nan nan nan nan nan nan nan nan nan nan nan nan nan nan nan nan nan nan 278 274 nan nan nan nan nan nan nan nan nan nan nan nan nan nan nan nan nan nan nan nan nan nan nan nan nan nan nan nan nan nan nan nan nan nan nan nan nan nan nan nan nan nan nan nan
nan nan 287 291 nan nan nan nan nan nan nan nan nan nan nan nan nan nan nan nan nan nan nan nan nan nan nan nan nan nan nan nan nan nan nan nan nan nan nan nan nan nan nan nan nan nan nan nan nan nan nan nan nan nan nan nan nan nan nan nan nan nan nan nan nan nan nan nan nan nan nan nan nan nan nan nan nan nan nan nan nan nan nan nan nan
nan nan nan nan nan nan nan nan nan 289 nan nan nan nan nan nan nan nan nan 283 284 nan 285 nan nan nan nan nan nan nan nan nan nan nan nan nan nan nan nan nan nan nan nan nan nan nan nan nan nan nan nan nan nan nan nan nan nan nan nan nan nan nan nan nan nan nan nan nan nan nan nan nan nan nan nan nan nan nan nan nan nan nan nan nan nan
nan nan nan nan nan nan nan nan nan nan nan nan 299 298 292 nan nan nan nan nan nan nan nan nan nan nan nan 291 296 nan nan nan nan nan nan nan nan nan nan nan nan nan nan nan nan nan nan nan nan nan nan nan nan nan nan nan nan nan nan nan nan nan nan nan nan nan nan nan nan nan nan nan nan nan nan nan nan nan nan nan nan nan nan nan nan
nan 263 nan nan nan nan nan nan nan nan nan nan nan nan nan nan nan nan nan nan nan nan nan nan nan 278 285 288 290 293 nan 290 nan nan nan nan nan nan nan nan nan nan nan nan nan nan nan nan nan nan nan nan nan nan nan nan nan nan nan nan nan nan nan nan nan nan nan nan nan nan nan nan nan nan nan nan nan nan nan nan nan nan nan nan nan
nan nan nan nan nan nan nan nan nan nan nan nan nan nan nan nan nan nan nan nan nan nan nan nan nan nan nan nan nan nan nan nan nan nan nan nan nan nan nan nan nan nan nan nan nan nan nan nan nan nan nan nan nan nan nan nan nan nan nan nan nan nan nan nan nan nan nan nan nan nan nan nan nan nan nan nan nan nan nan nan nan nan nan nan nan
nan nan nan nan nan nan nan nan nan nan nan nan nan nan nan nan nan nan nan nan nan nan nan nan nan nan nan nan nan nan nan nan nan nan nan nan nan nan nan nan nan nan nan nan nan nan nan nan nan nan nan nan nan nan nan nan nan nan nan nan nan nan nan nan nan nan nan nan nan nan nan nan nan nan nan nan nan nan nan nan nan nan nan nan nan
nan nan nan nan nan nan nan nan nan nan nan nan nan nan nan nan nan nan nan nan nan nan nan nan nan nan nan nan nan nan nan nan nan nan nan nan nan nan nan nan nan nan nan nan nan nan nan nan nan nan nan nan nan nan nan nan nan nan nan nan nan nan nan nan nan nan nan nan nan nan nan nan nan nan nan nan nan nan nan nan nan nan nan nan nan
nan nan nan nan nan nan nan nan nan nan nan nan nan nan nan nan nan nan nan nan nan nan nan nan nan nan nan nan nan nan nan nan nan nan nan nan nan nan nan nan nan nan nan nan nan nan nan nan nan nan nan nan nan nan nan nan nan nan nan nan nan nan nan nan nan nan nan nan nan nan nan nan nan nan nan nan nan nan nan nan nan nan nan nan nan
nan nan nan nan nan nan nan nan nan nan nan nan nan nan nan nan nan nan nan nan nan nan nan nan nan nan nan nan nan nan nan nan nan nan nan nan nan nan nan nan nan nan nan nan nan nan nan nan nan nan nan nan nan nan nan nan nan nan nan nan nan nan nan nan nan nan nan nan nan nan nan nan nan nan nan nan nan nan nan nan nan nan nan nan nan
nan nan nan nan nan nan nan nan nan nan nan nan nan nan nan nan nan nan nan nan nan nan nan nan nan nan nan nan nan nan nan nan nan nan nan nan nan nan nan nan nan nan nan nan nan nan nan nan nan nan nan nan nan nan nan nan nan nan nan nan nan nan nan nan nan nan nan nan nan nan nan nan nan nan nan nan nan nan nan nan nan nan nan nan nan
nan nan nan nan nan nan nan nan nan nan nan nan nan nan nan nan nan nan nan nan nan nan nan nan nan nan 295 nan nan nan nan nan nan nan nan nan nan nan nan nan nan nan nan nan nan nan nan nan nan nan nan nan nan nan nan nan nan nan nan nan nan nan nan nan nan nan nan nan nan nan nan nan nan nan nan nan nan nan nan nan nan nan nan nan nan
nan nan nan nan nan nan nan nan nan nan nan nan nan nan nan nan nan nan nan nan nan nan nan nan nan nan nan 296 nan 295 nan nan nan nan nan nan nan nan nan nan nan nan nan nan nan nan nan nan nan nan nan nan nan nan nan nan nan nan nan nan nan nan nan nan nan nan nan nan nan nan nan nan nan nan nan nan nan nan nan nan nan nan nan nan nan
nan nan nan nan nan nan nan nan nan nan nan nan nan nan nan nan nan nan nan nan nan nan nan nan nan nan nan nan nan nan nan nan nan nan nan nan nan nan nan nan nan nan nan nan nan nan nan nan nan nan nan nan nan nan nan nan nan nan nan nan nan nan nan nan nan nan nan nan nan nan nan nan nan nan nan nan nan nan nan nan nan nan nan nan nan
nan nan nan nan nan nan nan nan nan nan nan nan nan nan nan nan nan nan nan nan nan nan nan nan nan 295 294 293 290 nan nan nan nan nan nan nan nan nan nan nan nan nan nan nan nan nan nan nan nan nan nan nan nan nan nan nan nan nan nan nan nan nan nan nan nan nan nan nan nan nan nan nan nan nan nan nan nan nan nan nan nan nan nan nan nan
nan nan nan nan nan nan nan nan nan nan nan nan nan nan nan nan nan nan nan nan nan nan nan nan nan nan nan nan nan nan nan nan nan nan nan nan nan nan nan nan nan nan nan nan nan nan nan nan nan nan nan nan nan nan nan nan nan nan nan nan nan nan nan nan nan nan nan nan nan nan nan nan nan nan nan nan nan nan nan nan nan nan nan nan nan
nan nan nan nan nan nan nan nan nan nan nan nan nan nan nan nan nan nan nan nan nan nan nan nan nan nan nan nan nan 294 294 nan nan nan nan nan nan nan nan nan nan nan nan nan nan nan nan nan nan nan nan nan nan nan nan nan nan nan nan nan nan nan nan nan nan nan nan nan nan nan nan nan nan nan nan nan nan nan nan nan nan nan nan nan nan